Martinsburg, WV

9:43 PM EDT on August 27, 2016 (GMT -0400)
Eastern W Va Regional-Shepherd

Weather History for KMRB - October, 2013

Change the Weather History Date:

Tuesday, October 1, 2013

  Actual Average Record
Temperature  
Mean Temperature 67 °F 59 °F  
Max Temperature 81 °F 71 °F 92 °F (1927)
Min Temperature 53 °F 48 °F 27 °F (1947)
Degree Days  
Heating Degree Days 0 7  
Month to date heating degree days 0 7  
Since 1 July heating degree days 100 98  
Cooling Degree Days 2 1  
Month to date cooling degree days 2 1  
Year to date cooling degree days 1019 886  
Growing Degree Days 16 (Base 50)    
Moisture  
Dew Point 54 °F    
Average Humidity 66    
Maximum Humidity 93    
Minimum Humidity 39    
Precipitation  
Precipitation 0.00 in 0.10 in 2.40 in (1939)
Month to date precipitation 0.00 0.10  
Year to date precipitation 23.62 29.91  
Sea Level Pressure  
Sea Level Pressure 30.04 in    
Wind  
Wind Speed 4 mph (West)    
Max Wind Speed 16 mph    
Max Gust Speed 22 mph    
Visibility 10 miles    
Events      
T = Trace of Precipitation, MM = Missing Value Source: NWS Daily Summary

Daily Weather History Graph

Daily Weather History Graph

Search for Another Location

Airport or City:

Trip Planner

Search our weather history database for the weather conditions in past years. The results will help you decide how hot, cold, wet, or windy it might be!

Date:

Astronomy

Oct. 01, 2013 Rise Set
Actual Time 7:08 AM EDT 6:54 PM EDT
Civil Twilight 6:41 AM EDT 7:20 PM EDT
Nautical Twilight 6:10 AM EDT 7:51 PM EDT
Astronomical Twilight 5:38 AM EDT 8:23 PM EDT
Moon 3:41 AM EDT (10/1) 4:56 PM EDT (10/1)
Length of Visible Light 12h 39m
Length of Day
11h 45m
Waning Crescent, 12% of the Moon is Illuminated
Oct 1
Waning Crescent
Oct 4
New
Oct 11
First Quarter
Oct 18
Full
Oct 26
Last Quarter

Hourly Weather History & Observations

Time (EDT) Temp. Heat Index Dew Point Humidity Pressure Visibility Wind Dir Wind Speed Gust Speed Precip Events Conditions
12:53 AM 54.0 °F - 51.1 °F 90% 30.03 in 10.0 mi Calm Calm - N/A   Partly Cloudy
1:53 AM 54.0 °F - 50.0 °F 86% 30.03 in 10.0 mi Calm Calm - N/A   Partly Cloudy
2:53 AM 53.1 °F - 51.1 °F 93% 30.03 in 9.0 mi Calm Calm - N/A   Overcast
3:53 AM 55.9 °F - 52.0 °F 87% 30.04 in 10.0 mi Calm Calm - N/A   Overcast
4:53 AM 55.0 °F - 52.0 °F 89% 30.04 in 10.0 mi Calm Calm - N/A   Overcast
5:53 AM 55.0 °F - 52.0 °F 89% 30.06 in 10.0 mi Calm Calm - N/A   Mostly Cloudy
6:53 AM 54.0 °F - 51.1 °F 90% 30.07 in 8.0 mi Calm Calm - N/A   Overcast
7:53 AM 55.9 °F - 53.1 °F 90% 30.09 in 10.0 mi Calm Calm - N/A   Overcast
8:53 AM 61.0 °F - 55.0 °F 81% 30.09 in 10.0 mi Calm Calm - N/A   Overcast
9:53 AM 66.0 °F - 55.0 °F 68% 30.09 in 10.0 mi Calm Calm - N/A   Mostly Cloudy
10:53 AM 72.0 °F - 55.9 °F 57% 30.09 in 10.0 mi Calm Calm - N/A   Clear
11:53 AM 77.0 °F - 57.0 °F 50% 30.07 in 10.0 mi WSW 4.6 mph - N/A   Clear
12:53 PM 78.1 °F - 55.9 °F 46% 30.06 in 10.0 mi NNW 4.6 mph - N/A   Mostly Cloudy
1:53 PM 79.0 °F - 54.0 °F 42% 30.03 in 10.0 mi West 13.8 mph 20.7 mph N/A   Mostly Cloudy
2:53 PM 80.1 °F 80.0 °F 54.0 °F 40% 30.01 in 10.0 mi West 15.0 mph 19.6 mph N/A   Clear
3:53 PM 80.1 °F 80.1 °F 55.0 °F 42% 29.99 in 10.0 mi WNW 12.7 mph 18.4 mph N/A   Scattered Clouds
4:53 PM 79.0 °F - 55.0 °F 44% 29.99 in 10.0 mi West 4.6 mph - N/A   Clear
5:53 PM 78.1 °F - 54.0 °F 43% 29.99 in 10.0 mi West 10.4 mph - N/A   Clear
6:53 PM 73.0 °F - 54.0 °F 51% 29.99 in 10.0 mi West 6.9 mph - N/A   Clear
7:53 PM 72.0 °F - 54.0 °F 53% 30.01 in 10.0 mi West 5.8 mph - N/A   Clear
8:53 PM 64.0 °F - 55.0 °F 73% 30.02 in 10.0 mi Calm Calm - N/A   Clear
9:53 PM 66.0 °F - 55.0 °F 68% 30.03 in 10.0 mi SW 4.6 mph - N/A   Clear
10:53 PM 64.0 °F - 55.0 °F 73% 30.03 in 10.0 mi West 6.9 mph - N/A   Clear
11:53 PM 62.1 °F - 55.0 °F 78% 30.04 in 10.0 mi SW 3.5 mph - N/A   Clear